Погода в Красна-Липе

Чехия     50°54′48″N   14°30′28″E
темп.,
°C
ветер,
м/с
пор.,
м/с
влажн.,
%
обл.,
%
осадки,
мм/ч
давл.,
гПа
погр.,
м
19 июня, сб
сб1923:00+19ююв35750 0.0 101587
02:00+18ююв39790 0.0 1015201
05:00+17ю37810 0.0 1015110
08:00+22ю48630 0.0 1015273
11:00+28ююз45462 0.0 1015906
14:00+31ююз33385 0.0 10142332
17:00+31вюв223913 0.0 10122047
20:00+18зюз2695100 0.3 1014168
20 июня, вс
вс2023:00+18ссв2696100 1.8 1015210
02:00+17вюв2499100 1.8 1013116
05:00+17ю229396 0.0 101140
08:00+21ююв388016 0.0 1011255
11:00+27ююз565194 0.0 10111028
14:00+30ююз454296 0.0 10101919
17:00+28зсз235522 0.0 1009237
20:00+25с117096 0.0 100915
21 июня, пн
пн2123:00+21всв227699 0.0 100831
02:00+19всв2282100 0.0 100719
05:00+19ююв2283100 0.0 100538
08:00+21ю2586100 0.8 1006222
11:00+25з455199 0.5 1007948
14:00+26сз455170 0.6 10071193
17:00+25сз56574 0.0 10081045
20:00+22с366916 0.0 1009337
22 июня, вт
вт2223:00+17ссз229299 0.9 101122
02:00+16св119123 0.9 101111
05:00+15с0193100 0.0 101111
08:00+19ссв1281100 0.0 1012269
11:00+23св3362100 0.0 1012885
14:00+26св445125 0.0 10121470
17:00+27всв445097 0.1 10121722
20:00+21всв378489 2.9 1012175
23 июня, ср
ср2323:00+17зсз3698100 3.5 1014227
02:00+16ссз3899100 7.8 1015447
05:00+16с3899100 8.4 1015485
08:00+16ссз2699100 12.4 1016449
11:00+15с3699100 6.2 1017538
14:00+17ссв4694100 6.4 1018629
17:00+18св457694 0.1 1019814
20:00+18св477472 0.1 1018853